Simultaneous Nadir Overpasses (SNOs) Predictions

Prediction of SNOs between TERRA and METOP-C Satellite Orbit:

Table of predicted SNOs for the next 14.0 days since TLE Epoch: 6/8/2019
Index Date (TERRA) Time (TERRA) Lat,Lon (TERRA) SZA (TERRA ) Date (METOP-C) Time (METOP-C) Lat,Lon (METOP-C) SZA (METOP-C ) Distance(km) Time Diff (sec)
1 06/09/2019 03:29:23 81.30, 174.78 61.34 06/09/2019 03:28:49 81.30, 174.81 61.33 0.62 34
2 06/09/2019 04:18:49 -81.31, -17.30 118.62 06/09/2019 04:19:29 -81.31, -17.18 118.59 2.02 40
3 06/11/2019 23:03:37 81.30,-118.72 61.12 06/11/2019 23:03:12 81.30,-118.67 61.12 0.80 25
4 06/11/2019 23:53:04 -81.30, 48.86 118.89 06/11/2019 23:53:53 -81.31, 48.96 118.85 1.92 49
5 06/14/2019 18:37:50 81.30, -52.24 60.95 06/14/2019 18:37:34 81.30, -52.15 60.96 1.52 16
6 06/14/2019 19:27:17 -81.30, 115.37 119.06 06/14/2019 19:28:15 -81.31, 115.49 119.01 2.08 58
7 06/17/2019 14:12:04 81.30, 14.22 60.83 06/17/2019 14:11:57 81.30, 14.38 60.85 2.73 7
8 06/17/2019 15:01:31 -81.30,-178.15 119.17 06/17/2019 15:02:38 -81.31,-177.99 119.12 2.70 67
9 06/20/2019 08:56:52 -81.30, -86.99 119.24 06/20/2019 08:55:42 -81.30, -87.15 119.30 2.84 70




NCC Satellite Simultaneous Nadir Overpasses (SNOs) Prediction Service
